ProjectID,Date,Electric Generation,Electric Utility Import,Facility Electric Load
,YYYY-MM-DD,kW,kW,kW
380,2016-09-01,0.0,,0.0
380,2016-09-02,0.0,,0.0
380,2016-09-03,0.0,,0.0
380,2016-09-04,0.0,,0.0
380,2016-09-05,0.0,,0.0
380,2016-09-06,0.0,,0.0
380,2016-09-07,0.0,,0.0
380,2016-09-08,0.0,,0.0
380,2016-09-09,0.0,,0.0
380,2016-09-10,0.0,,0.0
380,2016-09-11,0.0,,0.0
380,2016-09-12,0.0,,0.0
380,2016-09-13,0.0,,0.0
380,2016-09-14,0.0,,0.0
380,2016-09-15,0.0,,0.0
380,2016-09-16,0.0,,0.0
380,2016-09-17,0.0,,0.0
380,2016-09-18,0.0,,0.0
380,2016-09-19,0.0,,0.0
380,2016-09-20,0.0,,0.0
380,2016-09-21,0.0,,0.0
380,2016-09-22,0.0,,0.0
380,2016-09-23,0.0,,0.0
380,2016-09-24,0.0,,0.0
380,2016-09-25,0.0,,0.0
380,2016-09-26,0.0,,0.0
380,2016-09-27,0.0,,0.0
380,2016-09-28,26.096249999999998,,26.096249999999998
380,2016-09-29,22.692916666666665,,22.692916666666665
380,2016-09-30,14.573749999999997,,14.573749999999997
380,2016-10-01,15.887500000000001,,15.887500000000001
380,2016-10-02,18.238333333333333,,18.238333333333333
380,2016-10-03,37.899166666666666,,37.899166666666666
380,2016-10-04,45.51958333333334,,45.51958333333334
380,2016-10-05,66.17541666666666,,66.17541666666666
380,2016-10-06,62.924583333333324,,62.924583333333324
380,2016-10-07,15.1595,,15.1595
380,2016-10-08,20.55333333333333,,20.55333333333333
380,2016-10-09,8.045833333333333,,8.045833333333333
380,2016-10-10,67.91458333333333,,67.91458333333333
380,2016-10-11,56.18208333333333,,56.18208333333333
380,2016-10-12,45.18333333333333,,45.18333333333333
380,2016-10-13,29.495833333333326,,29.495833333333326
380,2016-10-14,58.36583333333332,,58.36583333333332
380,2016-10-15,55.271666666666675,,55.271666666666675
380,2016-10-16,39.86416666666666,,39.86416666666666
380,2016-10-17,39.43208333333333,,39.43208333333333
380,2016-10-18,47.23666666666667,,47.23666666666667
380,2016-10-19,42.54333333333333,,42.54333333333333
380,2016-10-20,34.779999999999994,,34.779999999999994
380,2016-10-21,12.139999999999999,,12.139999999999999
380,2016-10-22,13.907916666666667,,13.907916666666667
380,2016-10-23,49.52541666666665,,49.52541666666665
380,2016-10-24,39.714166666666664,,39.714166666666664
380,2016-10-25,42.66166666666667,,42.66166666666667
380,2016-10-26,45.40208333333334,,45.40208333333334
380,2016-10-27,4.915416666666667,,4.915416666666667
380,2016-10-28,30.590416666666666,,30.590416666666666
380,2016-10-29,35.165,,35.165
380,2016-10-30,29.68875,,29.68875
380,2016-10-31,47.71916666666667,,47.71916666666667
380,2016-11-01,39.35125,,39.35125
380,2016-11-02,38.04125,,38.04125
380,2016-11-03,22.02625,,22.02625
380,2016-11-04,46.14958333333333,,46.14958333333333
380,2016-11-05,42.19083333333333,,42.19083333333333
380,2016-11-06,45.26166666666668,,45.26166666666668
380,2016-11-07,47.15166666666667,,47.15166666666667
380,2016-11-08,44.54666666666665,,44.54666666666665
380,2016-11-09,7.9054166666666665,,7.9054166666666665
380,2016-11-10,43.19499999999999,,43.19499999999999
380,2016-11-11,42.60583333333333,,42.60583333333333
380,2016-11-12,44.68833333333333,,44.68833333333333
380,2016-11-13,41.02166666666667,,41.02166666666667
380,2016-11-14,40.28541666666666,,40.28541666666666
380,2016-11-15,3.6529166666666675,,3.6529166666666675
380,2016-11-16,39.399166666666666,,39.399166666666666
380,2016-11-17,39.5175,,39.5175
380,2016-11-18,40.22708333333333,,40.22708333333333
380,2016-11-19,38.622499999999995,,38.622499999999995
380,2016-11-20,17.84916666666667,,17.84916666666667
380,2016-11-21,14.330833333333333,,14.330833333333333
380,2016-11-22,40.54208333333334,,40.54208333333334
380,2016-11-23,38.27583333333334,,38.27583333333334
380,2016-11-24,12.038333333333332,,12.038333333333332
380,2016-11-25,20.449583333333333,,20.449583333333333
380,2016-11-26,26.45875,,26.45875
380,2016-11-27,0.0,,0.0
380,2016-11-28,35.74916666666666,,35.74916666666666
380,2016-11-29,1.6208333333333333,,1.6208333333333333
380,2016-11-30,6.0354166666666655,,6.0354166666666655
380,2016-12-01,24.16625,,24.16625
380,2016-12-02,30.970833333333328,,30.970833333333328
380,2016-12-03,26.027916666666666,,26.027916666666666
380,2016-12-04,36.496249999999996,,36.496249999999996
380,2016-12-05,25.934583333333336,,25.934583333333336
380,2016-12-06,19.77625,,19.77625
380,2016-12-07,10.739166666666664,,10.739166666666664
380,2016-12-08,14.157916666666665,,14.157916666666665
380,2016-12-09,29.739166666666666,,29.739166666666666
380,2016-12-10,26.02,,26.02
380,2016-12-11,18.06083333333333,,18.06083333333333
380,2016-12-12,8.3975,,8.3975
380,2016-12-13,28.042083333333327,,28.042083333333327
380,2016-12-14,33.35833333333333,,33.35833333333333
380,2016-12-15,26.648333333333337,,26.648333333333337
380,2016-12-16,29.75125,,29.75125
380,2016-12-17,0.06750000000000002,,0.06750000000000002
380,2016-12-18,3.614166666666667,,3.614166666666667
380,2016-12-19,32.89041666666667,,32.89041666666667
380,2016-12-20,34.86291666666667,,34.86291666666667
380,2016-12-21,19.329583333333332,,19.329583333333332
380,2016-12-22,21.40041666666666,,21.40041666666666
380,2016-12-23,30.425416666666667,,30.425416666666667
380,2016-12-24,7.088749999999998,,7.088749999999998
380,2016-12-25,33.64083333333333,,33.64083333333333
380,2016-12-26,9.91625,,9.91625
380,2016-12-27,19.767083333333332,,19.767083333333332
380,2016-12-28,20.715,,20.715
380,2016-12-29,2.4662500000000005,,2.4662500000000005
380,2016-12-30,23.924583333333334,,23.924583333333334
380,2016-12-31,24.72333333333333,,24.72333333333333
380,2017-01-01,34.57,,34.57
380,2017-01-02,6.962500000000001,,6.962500000000001
380,2017-01-03,4.755000000000001,,4.755000000000001
380,2017-01-04,17.240416666666665,,17.240416666666665
380,2017-01-05,25.534999999999997,,25.534999999999997
380,2017-01-06,20.328333333333333,,20.328333333333333
380,2017-01-07,0.7004166666666668,,0.7004166666666668
380,2017-01-08,0.6620833333333334,,0.6620833333333334
380,2017-01-09,2.1983333333333337,,2.1983333333333337
380,2017-01-10,4.519583333333333,,4.519583333333333
380,2017-01-11,28.69583333333333,,28.69583333333333
380,2017-01-12,16.638749999999998,,16.638749999999998
380,2017-01-13,37.42583333333334,,37.42583333333334
380,2017-01-14,17.858749999999997,,17.858749999999997
380,2017-01-15,17.206666666666663,,17.206666666666663
380,2017-01-16,39.63208333333333,,39.63208333333333
380,2017-01-17,4.690833333333333,,4.690833333333333
380,2017-01-18,7.163333333333333,,7.163333333333333
380,2017-01-19,30.183333333333326,,30.183333333333326
380,2017-01-20,11.766666666666664,,11.766666666666664
380,2017-01-21,30.80791666666666,,30.80791666666666
380,2017-01-22,8.559583333333334,,8.559583333333334
380,2017-01-23,8.050000000000002,,8.050000000000002
380,2017-01-24,6.556666666666668,,6.556666666666668
380,2017-01-25,41.15291666666666,,41.15291666666666
380,2017-01-26,20.24041666666667,,20.24041666666667
380,2017-01-27,20.8925,,20.8925
380,2017-01-28,19.71625,,19.71625
380,2017-01-29,47.22625,,47.22625
380,2017-01-30,35.42666666666666,,35.42666666666666
380,2017-01-31,4.2266666666666675,,4.2266666666666675
380,2017-02-01,19.25208333333333,,19.25208333333333
380,2017-02-02,44.78041666666667,,44.78041666666667
380,2017-02-03,38.60041666666667,,38.60041666666667
380,2017-02-04,51.815416666666664,,51.815416666666664
380,2017-02-05,20.8,,20.8
380,2017-02-06,50.71333333333334,,50.71333333333334
380,2017-02-07,4.494583333333334,,4.494583333333334
380,2017-02-08,40.164166666666674,,40.164166666666674
380,2017-02-09,0.01875,,0.01875
380,2017-02-10,4.300416666666666,,4.300416666666666
380,2017-02-11,5.832916666666666,,5.832916666666666
380,2017-02-12,0.25833333333333336,,0.25833333333333336
380,2017-02-13,9.884166666666667,,9.884166666666667
380,2017-02-14,15.50666666666667,,15.50666666666667
380,2017-02-15,14.940416666666666,,14.940416666666666
380,2017-02-16,32.00708333333333,,32.00708333333333
380,2017-02-17,42.221666666666664,,42.221666666666664
380,2017-02-18,47.104166666666664,,47.104166666666664
380,2017-02-19,49.447916666666664,,49.447916666666664
380,2017-02-20,59.76416666666666,,59.76416666666666
380,2017-02-21,48.22666666666667,,48.22666666666667
380,2017-02-22,27.75,,27.75
380,2017-02-23,43.653749999999995,,43.653749999999995
380,2017-02-24,56.32999999999999,,56.32999999999999
380,2017-02-25,33.87166666666666,,33.87166666666666
380,2017-02-26,63.817499999999995,,63.817499999999995
380,2017-02-27,49.984166666666674,,49.984166666666674
380,2017-02-28,50.60416666666666,,50.60416666666666
380,2017-03-01,16.936249999999998,,16.936249999999998
380,2017-03-02,57.9725,,57.9725
380,2017-03-03,49.44833333333333,,49.44833333333333
380,2017-03-04,56.71166666666665,,56.71166666666665
380,2017-03-05,79.0475,,79.0475
380,2017-03-06,66.73541666666667,,66.73541666666667
380,2017-03-07,19.77458333333333,,19.77458333333333
380,2017-03-08,60.45875,,60.45875
380,2017-03-09,75.10249999999999,,75.10249999999999
380,2017-03-10,0.9375,,0.9375
380,2017-03-11,9.905833333333332,,9.905833333333332
380,2017-03-12,44.80458333333334,,44.80458333333334
380,2017-03-13,64.09791666666668,,64.09791666666668
380,2017-03-14,0.0029166666666666664,,0.0029166666666666664
380,2017-03-15,0.08333333333333333,,0.08333333333333333
380,2017-03-16,0.44333333333333336,,0.44333333333333336
380,2017-03-17,1.58875,,1.58875
380,2017-03-18,1.062083333333333,,1.062083333333333
380,2017-03-19,15.844166666666666,,15.844166666666666
380,2017-03-20,53.31624999999999,,53.31624999999999
380,2017-03-21,62.115833333333335,,62.115833333333335
380,2017-03-22,91.82458333333334,,91.82458333333334
380,2017-03-23,90.36916666666666,,90.36916666666666
380,2017-03-24,33.306666666666665,,33.306666666666665
380,2017-03-25,30.409166666666664,,30.409166666666664
380,2017-03-26,18.644999999999992,,18.644999999999992
380,2017-03-27,24.38333333333333,,24.38333333333333
380,2017-03-28,11.629999999999995,,11.629999999999995
380,2017-03-29,85.22958333333334,,85.22958333333334
380,2017-03-30,69.58083333333333,,69.58083333333333
380,2017-03-31,8.659583333333332,,8.659583333333332
380,2017-04-01,45.09041666666666,,45.09041666666666
380,2017-04-02,85.41500000000002,,85.41500000000002
380,2017-04-03,73.29541666666665,,73.29541666666665
380,2017-04-04,15.657499999999999,,15.657499999999999
380,2017-04-05,58.60791666666666,,58.60791666666666
380,2017-04-06,10.932083333333331,,10.932083333333331
380,2017-04-07,36.28958333333333,,36.28958333333333
380,2017-04-08,95.4225,,95.4225
380,2017-04-09,87.48125,,87.48125
380,2017-04-10,86.1825,,86.1825
380,2017-04-11,82.28791666666665,,82.28791666666665
380,2017-04-12,48.14458333333334,,48.14458333333334
380,2017-04-13,83.24458333333332,,83.24458333333332
380,2017-04-14,84.5175,,84.5175
380,2017-04-15,59.92416666666667,,59.92416666666667
380,2017-04-16,66.88166666666666,,66.88166666666666
380,2017-04-17,58.824999999999996,,58.824999999999996
380,2017-04-18,96.69208333333334,,96.69208333333334
380,2017-04-19,55.08583333333333,,55.08583333333333
380,2017-04-20,50.11166666666666,,50.11166666666666
380,2017-04-21,27.092083333333335,,27.092083333333335
380,2017-04-22,25.839583333333326,,25.839583333333326
380,2017-04-23,88.68583333333338,,88.68583333333338
380,2017-04-24,44.105416666666656,,44.105416666666656
380,2017-04-25,19.361666666666668,,19.361666666666668
380,2017-04-26,25.110416666666666,,25.110416666666666
380,2017-04-27,42.370416666666664,,42.370416666666664
380,2017-04-28,79.69375000000001,,79.69375000000001
380,2017-04-29,78.65291666666666,,78.65291666666666
380,2017-04-30,43.525000000000006,,43.525000000000006
380,2017-05-01,61.677916666666675,,61.677916666666675
380,2017-05-02,71.08166666666666,,71.08166666666666
380,2017-05-03,79.99291666666666,,79.99291666666666
380,2017-05-04,94.65541666666668,,94.65541666666668
380,2017-05-05,13.342916666666666,,13.342916666666666
380,2017-05-06,65.56916666666666,,65.56916666666666
380,2017-05-07,41.82625,,41.82625
380,2017-05-08,81.21708333333335,,81.21708333333335
380,2017-05-09,69.68374999999999,,69.68374999999999
380,2017-05-10,89.21291666666667,,89.21291666666667
380,2017-05-11,76.86583333333333,,76.86583333333333
380,2017-05-12,82.4825,,82.4825
380,2017-05-13,16.778333333333332,,16.778333333333332
380,2017-05-14,81.23208333333332,,81.23208333333332
380,2017-05-15,78.04916666666666,,78.04916666666666
380,2017-05-16,88.93541666666668,,88.93541666666668
380,2017-05-17,100.3629166666667,,100.3629166666667
380,2017-05-18,96.93958333333335,,96.93958333333335
380,2017-05-19,90.31583333333334,,90.31583333333334
380,2017-05-20,50.81333333333334,,50.81333333333334
380,2017-05-21,99.75500000000001,,99.75500000000001
380,2017-05-22,14.996250000000002,,14.996250000000002
380,2017-05-23,70.1525,,70.1525
380,2017-05-24,69.02833333333332,,69.02833333333332
380,2017-05-25,27.60374999999999,,27.60374999999999
380,2017-05-26,79.98041666666667,,79.98041666666667
380,2017-05-27,62.11041666666667,,62.11041666666667
380,2017-05-28,76.3175,,76.3175
380,2017-05-29,22.847500000000007,,22.847500000000007
380,2017-05-30,35.70666666666667,,35.70666666666667
380,2017-05-31,70.83583333333334,,70.83583333333334
380,2017-06-01,95.66375000000001,,95.66375000000001
380,2017-06-02,84.37083333333334,,84.37083333333334
380,2017-06-03,85.97791666666667,,85.97791666666667
380,2017-06-04,47.093333333333334,,47.093333333333334
380,2017-06-05,29.559583333333332,,29.559583333333332
380,2017-06-06,24.993333333333336,,24.993333333333336
380,2017-06-07,68.47666666666666,,68.47666666666666
380,2017-06-08,69.47916666666666,,69.47916666666666
380,2017-06-09,95.84874999999998,,95.84874999999998
380,2017-06-10,81.93375,,81.93375
380,2017-06-11,102.31458333333332,,102.31458333333332
380,2017-06-12,101.91125,,101.91125
380,2017-06-13,95.72041666666667,,95.72041666666667
380,2017-06-14,81.9375,,81.9375
380,2017-06-15,86.49583333333334,,86.49583333333334
380,2017-06-16,25.127499999999998,,25.127499999999998
380,2017-06-17,34.02333333333333,,34.02333333333333
380,2017-06-18,75.28625,,75.28625
380,2017-06-19,65.00291666666665,,65.00291666666665
380,2017-06-20,101.99708333333335,,101.99708333333335
380,2017-06-21,84.64874999999999,,84.64874999999999
380,2017-06-22,104.31166666666667,,104.31166666666667
380,2017-06-23,53.785000000000004,,53.785000000000004
380,2017-06-24,93.81083333333335,,93.81083333333335
380,2017-06-25,76.50999999999999,,76.50999999999999
380,2017-06-26,95.19083333333333,,95.19083333333333
380,2017-06-27,77.93250000000002,,77.93250000000002
380,2017-06-28,100.90374999999999,,100.90374999999999
380,2017-06-29,93.2275,,93.2275
380,2017-06-30,83.29541666666665,,83.29541666666665
380,2017-07-01,64.0625,,64.0625
380,2017-07-02,95.01166666666666,,95.01166666666666
380,2017-07-03,97.90833333333336,,97.90833333333336
380,2017-07-04,90.4775,,90.4775
380,2017-07-05,101.28041666666668,,101.28041666666668
380,2017-07-06,58.5325,,58.5325
380,2017-07-07,49.90333333333333,,49.90333333333333
380,2017-07-08,80.12374999999999,,80.12374999999999
380,2017-07-09,102.74374999999999,,102.74374999999999
380,2017-07-10,86.99708333333335,,86.99708333333335
380,2017-07-11,61.76958333333334,,61.76958333333334
380,2017-07-12,82.22125,,82.22125
380,2017-07-13,67.07666666666664,,67.07666666666664
380,2017-07-14,16.256249999999998,,16.256249999999998
380,2017-07-15,84.94041666666668,,84.94041666666668
380,2017-07-16,92.39083333333333,,92.39083333333333
380,2017-07-17,86.62333333333333,,86.62333333333333
380,2017-07-18,85.52458333333334,,85.52458333333334
380,2017-07-19,99.84208333333333,,99.84208333333333
380,2017-07-20,85.39999999999999,,85.39999999999999
380,2017-07-21,98.14166666666667,,98.14166666666667
380,2017-07-22,82.76666666666667,,82.76666666666667
380,2017-07-23,46.555416666666666,,46.555416666666666
380,2017-07-24,33.773333333333326,,33.773333333333326
380,2017-07-25,34.41416666666666,,34.41416666666666
380,2017-07-26,89.3675,,89.3675
380,2017-07-27,45.51833333333334,,45.51833333333334
380,2017-07-28,68.62083333333334,,68.62083333333334
380,2017-07-29,42.50666666666667,,42.50666666666667
380,2017-07-30,98.8291666666667,,98.8291666666667
380,2017-07-31,97.55583333333334,,97.55583333333334
380,2017-08-01,95.92708333333331,,95.92708333333331
380,2017-08-02,37.191250000000004,,37.191250000000004
380,2017-08-03,82.185,,82.185
380,2017-08-04,87.50791666666667,,87.50791666666667
380,2017-08-05,58.99458333333333,,58.99458333333333
380,2017-08-06,70.21125,,70.21125
380,2017-08-07,11.466249999999997,,11.466249999999997
380,2017-08-08,66.43333333333332,,66.43333333333332
380,2017-08-09,91.8266666666667,,91.8266666666667
380,2017-08-10,76.31166666666667,,76.31166666666667
380,2017-08-11,72.36291666666666,,72.36291666666666
380,2017-08-12,52.562083333333334,,52.562083333333334
380,2017-08-13,89.17833333333334,,89.17833333333334
380,2017-08-14,54.33374999999999,,54.33374999999999
380,2017-08-15,20.224999999999998,,20.224999999999998
380,2017-08-16,91.96374999999999,,91.96374999999999
380,2017-08-17,87.79000000000002,,87.79000000000002
380,2017-08-18,21.332083333333333,,21.332083333333333
380,2017-08-19,85.04791666666668,,85.04791666666668
380,2017-08-20,89.99833333333335,,89.99833333333335
380,2017-08-21,67.86583333333333,,67.86583333333333
380,2017-08-22,75.45541666666666,,75.45541666666666
380,2017-08-23,87.11833333333335,,87.11833333333335
380,2017-08-24,89.90541666666667,,89.90541666666667
380,2017-08-25,76.81166666666667,,76.81166666666667
380,2017-08-26,87.08833333333335,,87.08833333333335
380,2017-08-27,83.68083333333334,,83.68083333333334
380,2017-08-28,79.985,,79.985
380,2017-08-29,16.486666666666665,,16.486666666666665
380,2017-08-30,86.51458333333335,,86.51458333333335
380,2017-08-31,65.92208333333333,,65.92208333333333
380,2017-09-01,86.62666666666668,,86.62666666666668
380,2017-09-02,49.71458333333333,,49.71458333333333
380,2017-09-03,31.24041666666666,,31.24041666666666
380,2017-09-04,81.86041666666667,,81.86041666666667
380,2017-09-05,73.21833333333332,,73.21833333333332
380,2017-09-06,14.979583333333336,,14.979583333333336
380,2017-09-07,62.76666666666667,,62.76666666666667
380,2017-09-08,68.94791666666666,,68.94791666666666
380,2017-09-09,81.62208333333334,,81.62208333333334
380,2017-09-10,78.23041666666667,,78.23041666666667
380,2017-09-11,77.37958333333334,,77.37958333333334
380,2017-09-12,67.1433333333333,,67.1433333333333
380,2017-09-13,59.743750000000006,,59.743750000000006
380,2017-09-14,32.37916666666666,,32.37916666666666
380,2017-09-15,59.59708333333334,,59.59708333333334
380,2017-09-16,53.287499999999994,,53.287499999999994
380,2017-09-17,38.8225,,38.8225
380,2017-09-18,37.92583333333334,,37.92583333333334
380,2017-09-19,47.08250000000001,,47.08250000000001
380,2017-09-20,48.67666666666667,,48.67666666666667
380,2017-09-21,47.181666666666665,,47.181666666666665
380,2017-09-22,71.79666666666667,,71.79666666666667
380,2017-09-23,71.83166666666665,,71.83166666666665
380,2017-09-24,66.73375,,66.73375
380,2017-09-25,65.71666666666667,,65.71666666666667
380,2017-09-26,58.73666666666666,,58.73666666666666
380,2017-09-27,63.1675,,63.1675
380,2017-09-28,71.05416666666666,,71.05416666666666
380,2017-09-29,58.2575,,58.2575
380,2017-09-30,38.99333333333333,,38.99333333333333
380,2017-10-01,69.39333333333335,,69.39333333333335
380,2017-10-02,68.01416666666667,,68.01416666666667
380,2017-10-03,65.09083333333334,,65.09083333333334
380,2017-10-04,65.43166666666666,,65.43166666666666
380,2017-10-05,48.718333333333334,,48.718333333333334
380,2017-10-06,54.737916666666656,,54.737916666666656
380,2017-10-07,44.715833333333336,,44.715833333333336
380,2017-10-08,15.812916666666665,,15.812916666666665
380,2017-10-09,6.939166666666665,,6.939166666666665
380,2017-10-10,53.89041666666666,,53.89041666666666
380,2017-10-11,35.654166666666676,,35.654166666666676
380,2017-10-12,38.73791666666666,,38.73791666666666
380,2017-10-13,47.675416666666656,,47.675416666666656
380,2017-10-14,27.252083333333328,,27.252083333333328
380,2017-10-15,21.630833333333328,,21.630833333333328
380,2017-10-16,30.629166666666666,,30.629166666666666
380,2017-10-17,58.84374999999999,,58.84374999999999
380,2017-10-18,53.979166666666664,,53.979166666666664
380,2017-10-19,55.32083333333333,,55.32083333333333
380,2017-10-20,54.064583333333324,,54.064583333333324
380,2017-10-21,50.065416666666664,,50.065416666666664
380,2017-10-22,49.467499999999994,,49.467499999999994
380,2017-10-23,27.523333333333337,,27.523333333333337
380,2017-10-24,12.955416666666665,,12.955416666666665
380,2017-10-25,18.137916666666666,,18.137916666666666
380,2017-10-26,11.545,,11.545
380,2017-10-27,48.683749999999996,,48.683749999999996
380,2017-10-28,47.225,,47.225
380,2017-10-29,4.075416666666667,,4.075416666666667
380,2017-10-30,37.333333333333336,,37.333333333333336
380,2017-10-31,47.63249999999999,,47.63249999999999
380,2017-11-01,12.356249999999998,,12.356249999999998
380,2017-11-02,35.73416666666667,,35.73416666666667
380,2017-11-03,37.764166666666675,,37.764166666666675
380,2017-11-04,37.70958333333332,,37.70958333333332
380,2017-11-05,7.980416666666667,,7.980416666666667
380,2017-11-06,10.184583333333334,,10.184583333333334
380,2017-11-07,18.652083333333334,,18.652083333333334
380,2017-11-08,29.044166666666666,,29.044166666666666
380,2017-11-09,37.66041666666667,,37.66041666666667
380,2017-11-10,41.15749999999999,,41.15749999999999
380,2017-11-11,46.37083333333333,,46.37083333333333
380,2017-11-12,34.950416666666676,,34.950416666666676
380,2017-11-13,15.065,,15.065
380,2017-11-14,22.41875,,22.41875
380,2017-11-15,36.530833333333334,,36.530833333333334
380,2017-11-16,25.662499999999994,,25.662499999999994
380,2017-11-17,41.28624999999999,,41.28624999999999
380,2017-11-18,10.757916666666667,,10.757916666666667
380,2017-11-19,24.95,,24.95
380,2017-11-20,31.239166666666662,,31.239166666666662
380,2017-11-21,36.66375,,36.66375
380,2017-11-22,13.761249999999999,,13.761249999999999
380,2017-11-23,39.795,,39.795
380,2017-11-24,37.336666666666666,,37.336666666666666
380,2017-11-25,35.44875,,35.44875
380,2017-11-26,27.856666666666666,,27.856666666666666
380,2017-11-27,35.793749999999996,,35.793749999999996
380,2017-11-28,35.31333333333333,,35.31333333333333
380,2017-11-29,33.04916666666667,,33.04916666666667
380,2017-11-30,24.7625,,24.7625
380,2017-12-01,32.42666666666667,,32.42666666666667
380,2017-12-02,29.64833333333333,,29.64833333333333
380,2017-12-03,12.203333333333333,,12.203333333333333
380,2017-12-04,28.288749999999997,,28.288749999999997
380,2017-12-05,8.062083333333334,,8.062083333333334
380,2017-12-06,22.194999999999993,,22.194999999999993
380,2017-12-07,33.99458333333333,,33.99458333333333
380,2017-12-08,15.991666666666667,,15.991666666666667
380,2017-12-09,0.6587500000000001,,0.6587500000000001
380,2017-12-10,0.12541666666666665,,0.12541666666666665
380,2017-12-11,0.6033333333333334,,0.6033333333333334
380,2017-12-12,4.976666666666667,,4.976666666666667
380,2017-12-13,29.163749999999993,,29.163749999999993
380,2017-12-14,1.29625,,1.29625
380,2017-12-15,1.09625,,1.09625
380,2017-12-16,0.5991666666666667,,0.5991666666666667
380,2017-12-17,1.3095833333333333,,1.3095833333333333
380,2017-12-18,13.335833333333333,,13.335833333333333
380,2017-12-19,21.49291666666667,,21.49291666666667
380,2017-12-20,19.38625,,19.38625
380,2017-12-21,32.1975,,32.1975
380,2017-12-22,6.315416666666667,,6.315416666666667
380,2017-12-23,1.687916666666667,,1.687916666666667
380,2017-12-24,18.546666666666667,,18.546666666666667
380,2017-12-25,20.291666666666668,,20.291666666666668
380,2017-12-26,28.25791666666667,,28.25791666666667
380,2017-12-27,34.78875,,34.78875
380,2017-12-28,36.57041666666667,,36.57041666666667